User: anonymous   Login
Location: Newark
(48.5667°N, 12.8167°E)
Time: 19:52:11
(UTC+00:00)
Language:

NOAA 15 - Orbit

View from above orbital plane
View from above orbital plane
View from above satellite
View from above satellite

Ground track
Ground track

The orbit data is extracted from the following two-line orbital elements,

1 25338U 98030A   19325.54342359  .00000022  00000-0  27688-4 0  9995
2 25338  98.7367 346.4545 0011033 145.7544 214.4349 14.25940029119466
Epoch (UTC): 21 November 2019 13:02:31
Eccentricity: 0.0011033
inclination: 98.7367°
perigee height: 797 km
apogee height: 813 km
right ascension of ascending node: 346.4545°
argument of perigee: 145.7544°
revolutions per day: 14.25940029
mean anomaly at epoch: 214.4349°
orbit number at epoch: 11946

The dashed part of the orbit path shows where the satellite is in the earth's shadow,  

DLR